Simultaneous Nadir Overpasses (SNOs) Predictions

Prediction of SNOs between FY3D and NOAA-19 Satellite Orbit:

Table of predicted SNOs for the next 14.0 days since TLE Epoch: 3/9/2024
Index Date (FY3D) Time (FY3D) Lat,Lon (FY3D) SZA (FY3D ) Date (NOAA-19) Time (NOAA-19) Lat,Lon (NOAA-19) SZA (NOAA-19 ) Distance(km) Time Diff (sec)
1 03/14/2024 12:07:48 75.70, -3.55 77.87 03/14/2024 12:06:42 75.67, -6.63 77.93 84.85 66
2 03/14/2024 12:58:42 -76.12, 162.31 101.69 03/14/2024 12:57:27 -76.10, 162.17 101.70 3.97 75
3 03/14/2024 13:49:29 76.15, -30.51 78.33 03/14/2024 13:48:30 76.13, -30.48 78.32 2.51 59
4 03/14/2024 14:40:14 -76.17, 136.76 101.67 03/14/2024 14:39:24 -76.16, 136.90 101.67 3.69 50
5 03/14/2024 15:31:00 76.16, -55.89 78.31 03/14/2024 15:30:28 76.15, -55.92 78.30 1.42 32
6 03/14/2024 16:21:45 -76.17, 111.38 101.70 03/14/2024 16:21:22 -76.18, 111.46 101.69 2.23 23
7 03/14/2024 17:12:31 76.16, -81.27 78.28 03/14/2024 17:12:26 76.16, -81.36 78.29 2.43 5
8 03/14/2024 18:03:16 -76.17, 85.99 101.72 03/14/2024 18:03:20 -76.19, 86.02 101.71 2.11 4
9 03/14/2024 18:54:03 76.20,-106.82 78.30 03/14/2024 18:54:24 76.17,-106.80 78.27 3.45 21
10 03/14/2024 19:44:47 -76.17, 60.61 101.75 03/14/2024 19:45:18 -76.20, 60.58 101.72 3.46 31
11 03/14/2024 20:35:34 76.21,-132.20 78.28 03/14/2024 20:36:22 76.19,-132.25 78.26 2.35 48
12 03/14/2024 21:26:19 -76.22, 35.06 101.73 03/14/2024 21:27:16 -76.22, 35.14 101.74 1.94 57
13 03/14/2024 22:17:05 76.21,-157.59 78.25 03/14/2024 22:18:20 76.20,-157.69 78.24 2.69 75
14 03/14/2024 23:07:59 -76.62, 8.17 101.32 03/14/2024 23:09:06 -76.58, 11.05 101.43 74.52 67



Historial Predications of SNOs between FY3D and NOAA-19
